Weather History for K06D - January, 2014

Change the Weather History Date:

Wednesday, January 8, 2014

  Actual Average (KRUG) Record (KRUG)
Temperature  
Mean Temperature -10 °F -  
Max Temperature 1 °F 12 °F 42 °F (1958)
Min Temperature -20 °F -8 °F -30 °F (1977)
Degree Days  
Heating Degree Days 74    
Moisture  
Dew Point -16 °F    
Average Humidity 77    
Maximum Humidity 92    
Minimum Humidity 55    
Precipitation  
Precipitation 0.00 in - - ()
Sea Level Pressure  
Sea Level Pressure 30.20 in    
Wind  
Wind Speed 8 mph (SW)    
Max Wind Speed 23 mph    
Max Gust Speed 29 mph    
Visibility 10 miles    
Events      
Averages and records for this station are not official NWS values.
T = Trace of Precipitation, MM = Missing Value Source: NWS Daily Summary

Daily Weather History Graph

Daily Weather History Graph

Search for Another Location

Airport or City:

Trip Planner

Search our weather history database for the weather conditions in past years. The results will help you decide how hot, cold, wet, or windy it might be!

Date:

Astronomy

Jan. 08, 2014 Rise Set
Actual Time 8:30 AM CST 5:00 PM CST
Civil Twilight 7:54 AM CST 5:36 PM CST
Nautical Twilight 7:14 AM CST 6:16 PM CST
Astronomical Twilight 6:36 AM CST 6:54 PM CST
Moon 12:10 PM CST (1/8) 1:19 AM CST (1/8)
Length of Visible Light 9h 42m
Length of Day
8h 29m
First Quarter, 56% of the Moon is Illuminated
Jan 8
First Quarter
Jan 15
Full
Jan 23
Last Quarter
Jan 30
New
Feb 6
First Quarter

Hourly Weather History & Observations

Time (CST) Temp. Windchill Dew Point Humidity Pressure Visibility Wind Dir Wind Speed Gust Speed Precip Events Conditions
12:15 AM -18.4 °F -28.9 °F -23.8 °F 76% 30.18 in 10.0 mi SW 3.5 mph - N/A   Clear
12:55 AM -20.2 °F -33.5 °F -25.6 °F 76% 30.18 in 10.0 mi WSW 4.6 mph - N/A   Clear
1:15 AM -20.2 °F - -25.6 °F 76% 30.18 in 10.0 mi Calm Calm - N/A   Clear
1:35 AM -18.4 °F -31.4 °F -22.0 °F 84% 30.18 in 10.0 mi NW 4.6 mph - N/A   Clear
1:55 AM -18.4 °F -28.9 °F -25.6 °F 70% 30.18 in 10.0 mi NNW 3.5 mph - N/A   Clear
2:15 AM -16.6 °F -32.9 °F -22.0 °F 76% 30.18 in 10.0 mi NNW 6.9 mph - N/A   Clear
2:35 AM -16.6 °F -35.7 °F -22.0 °F 76% 30.19 in 10.0 mi NW 9.2 mph - N/A   Clear
2:55 AM -16.6 °F -32.9 °F -22.0 °F 76% 30.20 in 10.0 mi NW 6.9 mph - N/A   Clear
3:15 AM -16.6 °F -31.3 °F -20.2 °F 84% 30.20 in 10.0 mi NNW 5.8 mph - N/A   Clear
3:35 AM -16.6 °F -34.4 °F -20.2 °F 84% 30.20 in 10.0 mi NW 8.1 mph - N/A   Clear
3:55 AM -13.0 °F -28.6 °F -18.4 °F 77% 30.20 in 10.0 mi NW 6.9 mph - N/A   Clear
4:15 AM -16.6 °F -34.4 °F -22.0 °F 76% 30.20 in 10.0 mi NW 8.1 mph - N/A   Clear
4:35 AM -16.6 °F -35.7 °F -22.0 °F 76% 30.19 in 10.0 mi NW 9.2 mph - N/A   Clear
4:55 AM -16.6 °F -32.9 °F -20.2 °F 84% 30.20 in 10.0 mi NW 6.9 mph - N/A   Clear
5:15 AM -18.4 °F -28.9 °F -22.0 °F 84% 30.20 in 10.0 mi NW 3.5 mph - N/A   Clear
5:35 AM -16.6 °F - -22.0 °F 76% 30.21 in 10.0 mi Calm Calm - N/A   Clear
5:55 AM -14.8 °F -27.2 °F -20.2 °F 77% 30.21 in 10.0 mi NNW 4.6 mph - N/A   Clear
6:15 AM -18.4 °F -28.9 °F -23.8 °F 76% 30.21 in 10.0 mi NNW 3.5 mph - N/A   Clear
6:35 AM -20.2 °F - -25.6 °F 76% 30.21 in 10.0 mi Calm Calm - N/A   Clear
6:55 AM -20.2 °F -30.9 °F -27.4 °F 69% 30.21 in 10.0 mi SSW 3.5 mph - N/A   Clear
7:15 AM -18.4 °F -28.9 °F -23.8 °F 76% 30.21 in 10.0 mi West 3.5 mph - N/A   Clear
7:35 AM -20.2 °F -37.3 °F -25.6 °F 76% 30.21 in 10.0 mi WSW 6.9 mph - N/A   Clear
7:55 AM -18.4 °F -37.9 °F -23.8 °F 76% 30.21 in 10.0 mi WSW 9.2 mph - N/A   Clear
8:15 AM -16.6 °F -31.3 °F -22.0 °F 76% 30.22 in 10.0 mi WSW 5.8 mph - N/A   Clear
8:35 AM -20.2 °F -33.5 °F -25.6 °F 76% 30.22 in 10.0 mi WSW 4.6 mph - N/A   Clear
8:55 AM -20.2 °F -35.5 °F -25.6 °F 76% 30.23 in 10.0 mi WSW 5.8 mph - N/A   Clear
9:15 AM -18.4 °F -35.1 °F -25.6 °F 70% 30.24 in 10.0 mi SSW 6.9 mph - N/A   Clear
9:35 AM -16.6 °F -32.9 °F -22.0 °F 76% 30.24 in 10.0 mi SW 6.9 mph - N/A   Clear
9:55 AM -14.8 °F -32.2 °F -20.2 °F 77% 30.25 in 10.0 mi SSW 8.1 mph - N/A   Clear
10:15 AM -14.8 °F -32.2 °F -20.2 °F 77% 30.25 in 10.0 mi SSW 8.1 mph - N/A   Clear
10:35 AM -11.2 °F -27.8 °F -16.6 °F 77% 30.24 in 10.0 mi SW 8.1 mph - N/A   Clear
10:55 AM -9.4 °F -24.3 °F -13.0 °F 84% 30.24 in 10.0 mi SW 6.9 mph - N/A   Clear
11:15 AM -7.6 °F -20.6 °F -11.2 °F 84% 30.23 in 10.0 mi SW 5.8 mph - N/A   Clear
11:35 AM -4.0 °F -17.8 °F -9.4 °F 78% 30.22 in 10.0 mi SW 6.9 mph - N/A   Clear
11:55 AM -2.2 °F -18.9 °F -11.2 °F 66% 30.22 in 10.0 mi SSW 10.4 mph - N/A   Clear
12:15 PM -4.0 °F -22.1 °F -13.0 °F 65% 30.20 in 10.0 mi SW 11.5 mph - N/A   Clear
12:35 PM -4.0 °F -21.2 °F -13.0 °F 65% 30.19 in 10.0 mi SW 10.4 mph - N/A   Clear
12:55 PM -2.2 °F -16.8 °F -13.0 °F 60% 30.18 in 10.0 mi SSW 8.1 mph - N/A   Clear
1:15 PM -0.4 °F -15.7 °F -13.0 °F 55% 30.18 in 10.0 mi SSW 9.2 mph - N/A   Clear
1:35 PM -2.2 °F -19.9 °F -13.0 °F 60% 30.16 in 10.0 mi SSW 11.5 mph - N/A   Clear
1:55 PM -2.2 °F -18.9 °F -13.0 °F 60% 30.16 in 10.0 mi SW 10.4 mph - N/A   Clear
2:15 PM -2.2 °F -20.7 °F -13.0 °F 60% 30.15 in 10.0 mi SSW 12.7 mph - N/A   Clear
2:35 PM -4.0 °F -23.7 °F -13.0 °F 65% 30.15 in 10.0 mi SSW 13.8 mph - N/A   Clear
2:55 PM -5.8 °F -25.2 °F -13.0 °F 71% 30.14 in 10.0 mi SSW 12.7 mph - N/A   Clear
3:15 PM -7.6 °F -27.5 °F -13.0 °F 77% 30.15 in 10.0 mi SSW 12.7 mph - N/A   Clear
3:35 PM -7.6 °F -27.5 °F -13.0 °F 77% - - SSW 12.7 mph - N/A   Clear
3:55 PM -7.6 °F -27.5 °F -13.0 °F 77% - - SSW 12.7 mph - N/A   Clear
4:15 PM -7.6 °F -28.3 °F -13.0 °F 77% - - SSW 13.8 mph - N/A   Clear
4:35 PM -9.4 °F -28.9 °F -13.0 °F 84% - - SSW 11.5 mph - N/A   Unknown
4:55 PM -9.4 °F -27.9 °F -13.0 °F 84% - - South 10.4 mph - N/A   Unknown
5:15 PM -9.4 °F -26.8 °F -13.0 °F 84% - - SSW 9.2 mph - N/A   Unknown
5:35 PM -9.4 °F -27.9 °F -13.0 °F 84% - - South 10.4 mph 16.1 mph N/A   Unknown
5:55 PM -9.4 °F -27.9 °F -13.0 °F 84% - - South 10.4 mph - N/A   Unknown
6:15 PM -11.2 °F -31.1 °F -16.6 °F 77% - - SSW 11.5 mph - N/A   Clear
6:35 PM -9.4 °F -26.8 °F -13.0 °F 84% - - South 9.2 mph - N/A   Unknown
6:55 PM -7.6 °F -27.5 °F -13.0 °F 77% - - SSW 12.7 mph - N/A   Overcast
7:15 PM -7.6 °F -27.5 °F -13.0 °F 77% - - South 12.7 mph - N/A   Overcast
7:35 PM -7.6 °F -28.3 °F -11.2 °F 84% - - South 13.8 mph - N/A   Unknown
7:55 PM -7.6 °F -31.1 °F -11.2 °F 84% - - South 18.4 mph 25.3 mph N/A   Unknown
8:15 PM -7.6 °F -26.6 °F -11.2 °F 84% - - South 11.5 mph - N/A   Mostly Cloudy
8:35 PM -5.8 °F -25.2 °F -9.4 °F 84% - - South 12.7 mph - N/A   Unknown
8:55 PM -4.0 °F -23.7 °F -9.4 °F 78% - - SSW 13.8 mph - N/A   Overcast
9:15 PM -2.2 °F -22.2 °F -7.6 °F 78% - - SSW 15.0 mph - N/A   Overcast
9:35 PM -2.2 °F -23.5 °F -5.8 °F 85% - - SSW 17.3 mph 21.9 mph N/A   Overcast
9:55 PM -0.4 °F -21.2 °F -4.0 °F 85% - - South 17.3 mph - N/A   Unknown
10:15 PM -0.4 °F -21.7 °F -4.0 °F 85% - - South 18.4 mph 25.3 mph N/A   Overcast
10:35 PM -0.4 °F -21.7 °F -2.2 °F 92% - - South 18.4 mph 21.9 mph N/A   Overcast
10:55 PM 1.4 °F -19.4 °F -2.2 °F 85% - - South 18.4 mph 23.0 mph N/A   Overcast
11:15 PM 1.4 °F -19.4 °F -2.2 °F 85% - - South 18.4 mph 28.8 mph N/A   Mostly Cloudy
11:35 PM 1.4 °F -20.5 °F -0.4 °F 92% - - South 20.7 mph 25.3 mph N/A   Overcast
11:55 PM 1.4 °F -21.4 °F -0.4 °F 92% - - SSW 23.0 mph 28.8 mph N/A   Overcast